{"data":{"norad_id":53613,"epoch":"2026-05-25T00:05:01.135968Z","epoch_age_seconds":81835,"freshness":"FRESH","line1":"1 53613U 22104AB  26145.00348537  .00000834  00000+0  70493-4 0  9996","line2":"2 53613  53.2145 251.6865 0001071  93.3018 266.8096 15.08839854207159","mean_motion":15.08839854,"eccentricity":0.0001071,"inclination_deg":53.2145,"raan_deg":251.6865,"arg_perigee_deg":93.3018,"mean_anomaly_deg":266.8096,"bstar":7.0493e-5,"rev_number":20715,"period_min":95.437563912598,"perigee_km":539.00293019028,"apogee_km":540.48474026518,"semimajor_km":6917.8808352277,"source":"CELESTRAK","updated_at":"2026-05-25T13:38:17.478384Z"}}